sat.trackr.live / text

‹ back to catalog

STARLINK-30130

NORAD 56697 · 2023-067K

PAYLOAD ACTIVE UNKNOWN

§ Identity

Operator
Country
US
Launch date
2023-05-19
Launch site
AFETR
Launch vehicle
Mass (kg)
RCS (m²)

Purposes: comms

External: N2YO · Heavens-Above · Gunter

§ Orbital elements

Epoch: 2026-09-20T08:24:46.268928Z

Period
94.27 min
Inclination
43.0023°
Eccentricity
0.0000916
Mean motion
15.27575486 rev/d
Perigee alt
482.4 km
Apogee alt
483.7 km
Semi-major
6,861.2 km
B*
-1.7263e-6
RAAN
251.4810°
Arg perigee
274.5924°
Mean anomaly
85.4823°
Rev number
18,521

§ Raw data

STARLINK-301301 56697U 23067K   26263.35053552 -.00000309  00000+0 -17263-5 0  99952 56697  43.0023 251.4810 0000916 274.5924  85.4823 15.27575486185214

JSON: /api/v1/satellites/56697 · /tle

For live sub-satellite position, see the globe view (requires WebGL).

§ Visibility from observer

Set your observer location to see the next 7 days of passes ≥ 10°. The values pass through the URL so the page stays shareable.

No JS? Fill the form by hand. The geolocation button needs JavaScript.